Location: Bucharest
(44.4268°N, 26.1025°E)
Time: 12:16:46
(UTC+03:00)

ESTCUBE 1 - Pass Details

Date: 05 July 2022
Orbit: 645 x 657 km, 97.9° (Epoch: 15 August)

Event Time Altitude Azimuth Distance (km) Brightness Sun altitude
Exits shadow 00:18:49 20° 236° (SW) 1,495 ? -21.3°
Maximum altitude 00:20:21 24° 266° (W) 1,344 ? -21.4°
Drops below altitude 10° 00:23:59 10° 320° (NW) 2,058 ? -21.5°
Sets 00:26:36 0° 335° (NNW) 2,976 ? -21.7°
